[[{"header":{"parameterUnit":"m.s-1","parameterCategory":1,"la1":30.2992,"la2":30.254,"lo1":-89.0895,"lo2":-89.0443,"dy":0.0025,"dx":0.0025,"nx":19,"ny":19,"refTime":"2026-05-16T21:00:00:Z","depth":0,"parameterNumber":2,"parameterNumberName":"U-component_of_WINDS"},"data":[0,0,0,-4.4002,-4.4004,-4.4062,-4.4062,-4.4151,-4.4152,0,0,0,0,0,0,0,0,0,0,0,-4.3995,-4.3996,-4.4002,-4.4004,-4.4062,-4.4062,-4.4151,-4.4152,0,0,0,0,0,0,0,0,0,0,0,-4.3995,-4.3996,-4.3997,-4.4004,-4.4062,-4.4062,-4.4151,-4.4101,0,0,0,0,0,0,0,0,0,0,-4.4042,-4.4047,-4.3996,-4.3997,-4.4004,-4.4062,-4.4062,-4.4099,-4.4104,-4.4132,0,-4.416,0,-4.4158,-4.4159,-4.416,0,0,0,-4.3996,-4.4042,-4.4048,-4.3998,-4.4005,-4.4061,-4.4033,-4.4102,-4.4108,-4.414,-4.4161,-4.4164,-4.4159,-4.416,-4.416,-4.4346,-4.4348,0,0,-4.3993,-4.4011,-4.4044,-4.4053,-4.4046,-4.4031,-4.4035,-4.4105,-4.413,-4.4161,-4.4166,-4.4161,-4.4161,-4.4161,-4.4345,-4.4347,0,0,0,-4.3989,-4.4009,-4.4013,-4.405,-4.4059,-4.4033,-4.4038,-4.4127,-4.4126,-4.4167,-4.4162,-4.4161,-4.4163,-4.4344,-4.4346,-4.4424,0,0,0,-4.3986,-4.4007,-4.4012,-4.4025,-4.4058,-4.4094,-4.4058,-4.4122,-4.4129,-4.4161,-4.4161,-4.4164,-4.4342,-4.4345,-4.4418,-4.4457,0,0,0,-4.3988,-4.4007,-4.4019,-4.4025,-4.4051,-4.4092,-4.4096,-4.4123,-4.4126,-4.416,-4.4164,-4.4342,-4.4344,-4.4414,-4.4449,-4.4509,0,0,0,-4.3995,-4.4089,-4.4021,-4.4124,-4.4051,-4.4141,-4.4095,-4.4162,-4.42,-4.4162,-4.4343,-4.4346,-4.4413,-4.4444,-4.4504,-4.4561,-4.4587,0,0,-4.4123,-4.4105,-4.4164,-4.4105,-4.4212,-4.4131,-4.4249,-4.4266,-4.4252,-4.4316,-4.432,-4.442,-4.4449,-4.4508,-4.4732,-4.4753,0,0,0,-4.421,-4.4253,-4.4277,-4.4314,-4.433,-4.4346,-4.4344,-4.435,-4.4402,-4.4289,-4.4459,-4.4475,-4.4509,-4.4535,-4.4553,-4.458,-4.4359,-4.4359,-4.4359,-4.4417,-4.4395,-4.449,-4.4474,-4.4511,-4.4507,-4.4534,-4.4542,-4.4509,-4.455,-4.4567,-4.4706,-4.4737,-4.475,-4.4779,-4.4598,-4.4598,-4.4598,-4.4598,-4.4601,-4.4656,-4.461,-4.4685,-4.4661,-4.4724,-4.4724,-4.4698,-4.4752,-4.4691,-4.472,-4.4652,-4.4774,-4.4797,-4.4604,-4.4603,-4.4602,-4.4602,-4.4601,-4.4732,-4.4754,-4.4761,-4.4811,-4.4853,-4.4834,-4.4887,-4.4864,-4.4842,-4.4871,-4.4885,-4.4884,-4.4877,-4.488,-4.488,-4.4881,-4.4881,-4.4882,-4.4882,-4.4863,-4.4868,-4.4917,-4.4941,-4.4961,-4.4984,-4.4982,-4.5,-4.5015,-4.4993,-4.4993,-4.4954,-4.4791,-4.4749,-4.4889,-4.4888,-4.4887,-4.4886,-4.4886,-4.5053,-4.5006,-4.5081,-4.5101,-4.5127,-4.5168,-4.5138,-4.5178,-4.519,-4.5217,-4.5173,-4.5057,-4.5036,-4.5022,-4.4986,-4.5179,-4.5179,-4.5179,-4.5179,-4.5161,-4.5149,-4.5218,-4.5252,-4.5282,-4.5262,-4.5345,-4.5344,-4.5335,-4.5341,-4.531,-4.5262,-4.5249,-4.5235,-4.5216,-4.5183,-4.5421,-4.5422,-4.5422,-4.5275,-4.5264,-4.534,-4.5331,-4.5349,-4.5365,-4.5442,-4.5481,-4.5462,-4.5431,-4.5344,-4.5334,-4.5256,-4.5233,-4.5197,-4.5169,-4.5106,0,0]},{"header":{"parameterUnit":"m.s-1","parameterCategory":1,"la1":30.2992,"la2":30.254,"lo1":-89.0895,"lo2":-89.0443,"dy":0.0025,"dx":0.0025,"nx":19,"ny":19,"refTime":"2026-05-16T21:00:00:Z","depth":0,"parameterNumber":3,"parameterNumberName":"V-component_of_WINDS"},"data":[0,0,0,3.1041,3.1042,3.1115,3.1116,3.121,3.121,0,0,0,0,0,0,0,0,0,0,0,3.1021,3.1021,3.1041,3.1043,3.1115,3.1116,3.1209,3.121,0,0,0,0,0,0,0,0,0,0,0,3.102,3.1021,3.1022,3.1043,3.1115,3.1116,3.1209,3.1154,0,0,0,0,0,0,0,0,0,0,3.1083,3.1066,3.1021,3.1022,3.1043,3.1115,3.1116,3.1151,3.1157,3.1177,0,3.1196,0,3.1205,3.1217,3.1217,0,0,0,3.1041,3.106,3.1079,3.1022,3.1044,3.1115,3.1082,3.1154,3.1161,3.1185,3.1197,3.1201,3.1206,3.1217,3.1218,3.1341,3.1341,0,0,3.1037,3.1034,3.1074,3.1084,3.1073,3.108,3.1084,3.1159,3.1171,3.1198,3.1203,3.1208,3.1218,3.1219,3.134,3.1341,0,0,0,3.1027,3.1031,3.1048,3.108,3.1093,3.1082,3.1087,3.1168,3.1174,3.1204,3.1209,3.1219,3.122,3.1339,3.134,3.1369,0,0,0,3.1024,3.1025,3.1046,3.1045,3.1092,3.1131,3.1095,3.1168,3.1177,3.1209,3.1219,3.1221,3.1339,3.134,3.1367,3.1384,0,0,0,3.1015,3.1024,3.1035,3.1045,3.1076,3.113,3.114,3.117,3.118,3.1217,3.1221,3.1338,3.134,3.1365,3.138,3.1416,0,0,0,3.1005,3.1059,3.1036,3.1098,3.1076,3.1148,3.114,3.1194,3.1229,3.1219,3.1339,3.134,3.1364,3.1378,3.1414,3.1445,3.1458,0,0,3.1071,3.1066,3.1103,3.1085,3.1161,3.1137,3.1217,3.1252,3.1257,3.1312,3.1316,3.1368,3.138,3.1415,3.1531,3.1541,0,0,0,3.1123,3.115,3.1171,3.1205,3.1234,3.126,3.1283,3.1296,3.1343,3.1285,3.139,3.1397,3.1418,3.1434,3.1442,3.1461,3.1347,3.1347,3.1347,3.1212,3.1218,3.128,3.1295,3.1328,3.1352,3.138,3.1401,3.1396,3.1421,3.1437,3.1507,3.1525,3.1532,3.1551,3.1454,3.1454,3.1454,3.1455,3.131,3.1349,3.1343,3.14,3.1406,3.1455,3.148,3.1476,3.1521,3.1495,3.1513,3.1484,3.1543,3.156,3.1457,3.1456,3.1456,3.1456,3.1456,3.1369,3.1389,3.1404,3.1456,3.1494,3.1507,3.1552,3.1556,3.1559,3.1577,3.1596,3.1595,3.1596,3.1586,3.1586,3.1586,3.1587,3.1587,3.1587,3.1424,3.1441,3.1479,3.1515,3.1538,3.1569,3.1595,3.1618,3.1644,3.1642,3.1643,3.1636,3.1547,3.1525,3.1591,3.159,3.159,3.1589,3.1589,3.1522,3.15,3.1559,3.1582,3.1626,3.1665,3.1669,3.1715,3.1734,3.1757,3.1746,3.168,3.1675,3.1668,3.165,3.1744,3.1744,3.1744,3.1744,3.1572,3.157,3.1632,3.1669,3.1706,3.1716,3.1783,3.1804,3.1821,3.1834,3.1821,3.1797,3.179,3.1789,3.178,3.1763,3.1883,3.1884,3.1884,3.1633,3.1635,3.1691,3.1709,3.1744,3.1774,3.1837,3.188,3.1895,3.1889,3.1844,3.1838,3.1799,3.1786,3.1779,3.1764,3.1733,0,0]}]]